Regional Weather Roundup
Issued by NWS

Home | Current Version | Previous Version | Text Only | Print | Product List | Glossary On
Versions: 1 2 3 4 5 6 7 8 9 10 11 12 13 14 15 16 17 18 19 20 21 22 23 24 25 26 27 28 29 30 31 32 33 34 35 36 37 38 39 40 41 42 43 44 45 46 47 48 49 50
000
ASUS44 KMEG 060810
RWRTN
TENNESSEE HOURLY STATE WEATHER ROUNDUP
NATIONAL WEATHER SERVICE MEMPHIS TN
200 AM CST SAT FEB 06 2016

TNZ002-004-019-021-049-052-054-088>092-060900-
WEST TENNESSEE

CITY           SKY/WX    TMP DP  RH WIND       PRES   REMARKS
MEMPHIS INTL   MOCLDY    37  25  61 CALM      30.36F
NWS MEMPHIS      N/A     32 N/A N/A MISG        N/A
JACKSON        CLEAR     27  23  85 CALM      30.37S
DYERSBURG      CLEAR     30  23  74 CALM      30.38S
UNION CITY     CLEAR     28  23  80 S5        30.35R WCI  23
PARIS          CLEAR     30  19  64 CALM      30.36R
LEXINGTON      CLEAR     27  23  86 CALM      30.35F
$$

TNZ008-025-027-028-033-062-065-066-060900-
NORTH MIDDLE TENNESSEE

CITY           SKY/WX    TMP DP  RH WIND       PRES   REMARKS
NASHVILLE      PTCLDY    32  22  66 CALM      30.38S
CLARKSVILLE    CLEAR     29  24  82 SE3       30.36S
SMYRNA         PTCLDY    27  25  92 CALM      30.40R
COOKEVILLE     CLEAR     27  25  93 CALM      30.36S
CROSSVILLE     PTCLDY    29  17  61 CALM      30.34S
$$

TNZ061-075-076-078-094-096-097-060900-
SOUTH MIDDLE TENNESSEE

CITY           SKY/WX    TMP DP  RH WIND       PRES   REMARKS
FAYETTEVILLE   CLEAR     32  23  69 CALM      30.36S
TULLAHOMA      CLEAR     27  21  80 CALM      30.37R
WINCHESTER     CLEAR     27  21  80 CALM      30.37R
MCMINNVILLE    CLEAR     27  25  93 CALM      30.37R
COLUMBIA       CLEAR     28  28 100 CALM      30.36S
SHELBYVILLE    CLEAR     30  25  80 E3        30.38S
$$

TNZ017-018-042-046-047-060900-
NORTHEAST TENNESSEE

CITY           SKY/WX    TMP DP  RH WIND       PRES   REMARKS
TRI CITIES     CLOUDY    24  19  81 CALM      30.37S
$$

TNZ012-013-036-069-073-074-060900-
CENTRAL EAST TENNESSEE

CITY           SKY/WX    TMP DP  RH WIND       PRES   REMARKS
KNOXVILLE      MOCLDY    29  21  72 CALM      30.38S
OAK RIDGE      PTCLDY    30  22  72 CALM      30.39S
GATLINBURG       N/A     25  19  80 CALM      30.37F
MORRISTOWN     SUNNY     27  21  80 CALM      30.36S
$$

TNZ083-085-099-060900-
SOUTHEAST TENNESSEE

CITY           SKY/WX    TMP DP  RH WIND       PRES   REMARKS
CHATTANOOGA    PTCLDY    30  25  81 CALM      30.38F
$$

SKY/WX REPORTED AS FAIR MEANS FEW OR NO CLOUDS BELOW
12 THOUSAND FEET.




USA.gov is the U.S. government's official web portal to all federal, state and local government web resources and services.